Regional Weather Roundup
Issued by NWS

Home | Current Version | Previous Version | Graphics & Text | Print | Product List | Glossary On
Versions: 1 2 3 4 5 6 7 8 9 10 11 12 13 14 15 16 17 18 19 20 21 22 23 24 25 26 27 28 29 30 31 32 33 34 35 36 37 38 39 40 41 42 43 44 45 46 47 48 49 50
000
ASUS43 KIND 231109
RWRIN

WEATHER ROUNDUP FOR INDIANA
NATIONAL WEATHER SERVICE INDIANAPOLIS IN
700 AM EDT TUE AUG 23 2016

NOTE: "FAIR" INDICATES FEW OR NO CLOUDS BELOW 12,000 FEET WITH NO
SIGNIFICANT WEATHER AND/OR OBSTRUCTIONS TO VISIBILITY.

* - STATION DOES NOT REPORT WEATHER SUCH AS PRECIPITATION OR FOG.

+ - STATION NOT QUALITY CONTROLLED BY THE NATIONAL WEATHER SERVICE.
    USE DATA WITH CAUTION...ESPECIALLY DEWPOINT AND RELATIVE
    HUMIDITY OBSERVATIONS.

INZ001>003-010>013-019-020-231200-
NORTHWEST INDIANA

CITY           SKY/WX    TMP DP  RH WIND       PRES   REMARKS
GARY /AIRPORT/ PTCLDY    63  59  88 SE5       30.20S
KNOX *+        CLEAR     55  45  67 SE3       30.22S
LA PORTE +     CLEAR    N/A N/A N/A CALM      30.23S
MICHIGAN CITY+ CLEAR     55  55 100 MISG      30.22S
MONTICELLO +   CLEAR     58  54  86 CALM      30.22S
RENSSELAER +   CLEAR     54  54 100 CALM      30.22R
VALPARAISO     CLEAR     53  53 100 CALM      30.23R

$$

LMZ046-743>745-231200-
SOUTHERN LAKE MICHIGAN

STATION/POSITION TIME  TEMP    WIND        PRES    WAVE
                       AIR SEA DIR/SP/G            HT
                 (UTC) (F)     (DEG/KT/KT) (MB)    (FT)
BURNS HARBOR     1000   64     190/  7/ 12 1023.0S
MICHIGAN CITY    1000   64     140/ 10/ 11   N/A
5NW MICH CITY    1100   67 73  180/ 12/ 14   N/A     1

$$

INZ004-005-014>016-021>024-231200-
NORTH CENTRAL INDIANA

CITY           SKY/WX    TMP DP  RH WIND       PRES   REMARKS
ELKHART        CLEAR     57  55  94 CALM      30.25
GOSHEN         CLEAR     57  53  86 SE3       30.25R
LOGANSPORT +   CLEAR     54  54 100 E3        30.25S
PERU/GRISSOM   CLEAR     58  56  94 SE5       30.23S
ROCHESTER +    CLEAR     57  55  94 CALM      30.25R
SOUTH BEND     CLEAR     56  54  93 CALM      30.24S
WARSAW +       CLEAR     54  54 100 CALM      30.26R

$$

INZ006>009-017-018-025>027-231200-
NORTHEAST INDIANA

CITY           SKY/WX    TMP DP  RH WIND       PRES   REMARKS
ANGOLA *+        N/A     55  55 100 CALM      30.26S VSB 1
AUBURN +       CLEAR     54  52  94 CALM      30.27R
FORT WAYNE     CLEAR     55  53  93 CALM      30.27R
HUNTINGTON +   CLEAR    N/A N/A N/A S3        30.26R

$$

INZ028-029-035-036-043>045-051>053-231200-
WEST CENTRAL INDIANA

CITY           SKY/WX    TMP DP  RH WIND       PRES   REMARKS
CRAWFORDSVL +  CLEAR     52  52 100 CALM      30.24R
GREENCASTLE +  CLEAR     55  55 100 CALM      30.25R
LAFAYETTE      CLEAR     58  57  97 E5        30.23R
TERRE HAUTE    CLEAR     58  56  93 CALM      30.23R

$$

INZ030>032-037>040-046>048-054>057-064-065-231200-
CENTRAL INDIANA

CITY           SKY/WX    TMP DP  RH WIND       PRES   REMARKS
COLUMBUS       PTCLDY    57  57 100 CALM      30.26
INDIANAPOLIS   PTCLDY    62  58  86 E6        30.25R
-EAGLE CREEK   CLEAR     61  58  90 CALM      30.24R
KOKOMO *+      CLEAR     55  52  88 SE5       30.25S
MARION +       CLEAR     54  53  96 CALM      30.27R
MT COMFORT *+  CLEAR     54  54 100 CALM      30.26R
SHELBYVILLE    CLEAR     56  53  90 CALM      30.25R
ZIONSVILLE +   CLEAR     53  53  99 CALM      30.26R

$$

INZ033-034-041-042-049-050-058-059-231200-
EAST CENTRAL INDIANA

CITY           SKY/WX    TMP DP  RH WIND       PRES   REMARKS
MUNCIE         CLEAR     58  54  86 SE3       30.27R

$$

INZ060-061-067>069-081>083-085>088-231200-
SOUTHWEST INDIANA

CITY           SKY/WX    TMP DP  RH WIND       PRES   REMARKS
EVANSVILLE     CLEAR     62  61  96 CALM      30.23R
HUNTINGBURG *+ CLEAR     57  55  94 CALM      30.23S
WASHINGTON +   CLEAR     57  57 100 MISG      30.23R

$$

INZ062-063-066-070>080-084-089>092-231200-
SOUTH CENTRAL AND SOUTHEAST INDIANA

CITY           SKY/WX    TMP DP  RH WIND       PRES   REMARKS
BLOOMINGTON    FOG       56  55  97 CALM      30.24S VSB 3/4
MADISON *+     CLEAR     59  57  94 CALM      30.28R

$$





USA.gov is the U.S. government's official web portal to all federal, state and local government web resources and services.